Weather observations for the past three days for
Fort Myers, Page Field
Imperial (Metric)
Date Time (edt) Wind (mph) Vis. (mi.) Weather Sky Cond. Temperature (ºF) Relative Humidity Wind Chill (°F) Heat Index (°F) Pressure Precipitation (in)
Air Dwpt 6 hour altimeter (in) sea level (mb) 1 hr 3 hr 6 hr
Max. Min.
09 10:53 SW 8 10.00 Fair CLR 87.1 66 50% 89 29.95 1014.3
09 09:53 Vrbl 3 10.00 Fair CLR 84 69.1 61% 88 29.94 1014.2
09 08:53 SE 3 10.00 Fair CLR 80.1 69.1 69% 83 29.94 1013.9
09 07:53 SE 7 10.00 Fair CLR 75.9 70 79 73 82% 77 29.92 1013.3
09 06:53 E 5 10.00 Fair CLR 73.9 69.1 85% 29.91 1012.9
09 05:53 NE 5 10.00 Fair CLR 73.9 69.1 85% 29.91 1013.0
09 04:53 NE 6 10.00 Fair CLR 75.9 69.1 79% 77 29.9 1012.8
09 03:53 N 7 10.00 Fair CLR 77 70 79% 79 29.91 1013.1
09 02:53 N 5 10.00 Fair CLR 78.1 70 76% 80 29.93 1013.6
09 01:53 N 5 10.00 Partly Cloudy SCT050 79 70 86 79 74% 82 29.95 1014.3
09 00:53 N 6 10.00 Partly Cloudy SCT065 79 72 79% 82 29.96 1014.7
08 23:53 N 8 10.00 Mostly Cloudy BKN060 80.1 73 79% 84 29.96 1014.8
08 22:53 NW 6 10.00 Fair CLR 80.1 72 76% 84 29.95 1014.4
08 21:53 NW 7 10.00 Fair CLR 81 71.1 72% 85 29.94 1014.0
08 20:53 W 7 10.00 Fair CLR 84 66.9 57% 87 29.91 1013.0
08 19:53 W 8 10.00 Fair CLR 86 66 93 86 51% 88 29.89 1012.2
08 18:53 NW 12 10.00 Fair CLR 88 66.9 50% 91 29.88 1011.9
08 17:53 W 10 10.00 Fair CLR 89.1 68 50% 93 29.87 1011.7
08 16:53 W 13 10.00 Fair CLR 91 69.1 49% 96 29.88 1011.8
08 15:53 Vrbl 3 10.00 Partly Cloudy SCT048 89.1 69.1 52% 94 29.9 1012.6
08 14:53 W 9 10.00 Fair CLR 91.9 64.9 41% 94 29.92 1013.5
08 13:53 NW 8 10.00 Partly Cloudy SCT055 93 64.9 93 72 40% 95 29.95 1014.3
08 12:53 Calm 10.00 Partly Cloudy SCT047 SCT055 90 64.9 44% 92 29.97 1015.1
08 11:53 Vrbl 5 10.00 Partly Cloudy SCT041 86 66.9 53% 89 30 1016.0
08 10:53 N 7 10.00 Fair CLR 86 69.1 57% 90 30.01 1016.5
08 09:53 NE 5 10.00 Fair CLR 82 70 67% 86 30.01 1016.4
08 08:53 Calm 5.00 Fog/Mist SCT002 73.9 72 94% 30.01 1016.3
08 07:53 SE 3 0.13 Fog VV002 72 72 75.9 72 100% 29.99 1015.7
08 06:53 E 5 1.00 Fog/Mist VV002 73 70 90% 29.96 1014.8
08 05:53 Calm 9.00 Fair CLR 73 70 90% 29.94 1014.0
08 04:53 Calm 10.00 Fair CLR 73 70 90% 29.93 1013.8
08 03:53 Calm 10.00 Fair CLR 75.9 72 88% 76 29.93 1013.8
08 02:53 NW 3 10.00 Fair CLR 75.9 72 88% 76 29.94 1014.1
08 01:53 NW 3 10.00 Fair CLR 75.9 72 82.9 75.9 88% 76 29.95 1014.3
08 00:53 NW 5 10.00 Fair CLR 77 72 85% 78 29.96 1014.7
07 23:53 NW 7 10.00 Fair CLR 77 72 85% 78 29.97 1015.0
07 22:53 NW 6 10.00 Fair CLR 78.1 73 85% 81 29.97 1014.9
07 21:53 W 7 10.00 Fair CLR 79 72 79% 82 29.95 1014.5
07 20:53 W 8 10.00 Fair CLR 80.1 69.1 69% 83 29.95 1014.5
07 19:53 W 10 10.00 Fair CLR 82.9 64.9 91 82.9 55% 85 29.96 1014.6
07 18:53 W 10 10.00 Fair CLR 87.1 64 46% 88 29.94 1014.1
07 17:53 W 12 10.00 Fair CLR 88 64 45% 89 29.94 1014.0
07 16:53 W 12 10.00 Fair CLR 90 60.1 37% 90 29.94 1014.1
07 15:53 W 10 10.00 Fair CLR 90 64.9 44% 92 29.95 1014.5
07 14:53 W 10 G 20 10.00 Fair CLR 90 64 42% 91 29.98 1015.2
07 13:53 W 13 10.00 Fair CLR 89.1 61 89.1 73.9 39% 89 30 1016.2
07 12:53 W 13 G 17 10.00 Fair CLR 87.1 66 50% 89 30.01 1016.5
07 11:53 SW 10 G 16 10.00 Mostly Cloudy BKN030 84.9 68 57% 88 30.02 1016.6
07 10:53 S 10 10.00 Partly Cloudy SCT025 84.9 70 61% 89 30.02 1016.8
07 09:53 SW 9 10.00 Mostly Cloudy BKN020 81 70 69% 84 30.02 1016.7
07 08:53 E 5 10.00 Fair CLR 78.1 71.1 79% 80 30.02 1016.6
07 07:53 SE 3 10.00 Fair CLR 73.9 70 73.9 72 88% 30.01 1016.5
07 06:53 Calm 10.00 A Few Clouds FEW021 72 68 87% 29.99 1015.7
07 05:53 Calm 10.00 Fair CLR 73 69.1 87% 29.97 1015.0
07 04:53 Calm 10.00 Fair CLR 73 69.1 87% 29.96 1014.7
07 03:53 S 5 10.00 Fair CLR 72 69.1 91% 29.96 1014.8
07 02:53 SE 5 10.00 Fair CLR 73 68 84% 29.97 1015.1
07 01:53 Calm 10.00 Fair CLR 73.9 66.9 82.9 73 79% 29.99 1015.7
07 00:53 NE 3 10.00 Fair CLR 75 66.9 76% 76 30 1016.0
06 23:53 Calm 10.00 Fair CLR 75.9 68 77% 77 30.01 1016.2
06 22:53 Calm 10.00 Mostly Cloudy BKN050 79 69.1 72% 82 30.01 1016.3
06 21:53 W 5 10.00 Fair CLR 79 66.9 67% 81 29.99 1015.7
06 20:53 W 3 10.00 Fair CLR 80.1 66 62% 82 29.99 1015.6
06 19:53 W 7 10.00 Fair CLR 82.9 63 90 82.9 51% 84 29.98 1015.3
06 18:53 W 9 10.00 Fair CLR 84.9 62.1 46% 85 29.98 1015.2
06 17:53 SW 10 10.00 Fair CLR 86 62.1 45% 87 29.97 1015.1
06 16:53 SW 12 10.00 Fair CLR 87.1 62.1 43% 88 29.97 1015.0
06 15:53 SW 12 G 21 10.00 Fair CLR 88 64.9 46% 90 29.98 1015.3
06 14:53 SW 12 10.00 Fair CLR 87.1 68 53% 91 30 1015.9
06 13:53 SW 10 10.00 Partly Cloudy SCT038 87.1 69.1 89.1 72 55% 91 30.01 1016.4
06 12:53 S 8 10.00 Partly Cloudy SCT042 SCT050 87.1 69.1 55% 91 30.02 1016.8
06 11:53 S 9 10.00 Fair CLR 86 64.9 49% 88 30.03 1017.0
Date Time (edt) Wind (mph) Vis. (mi.) Weather Sky Cond. Air Dwpt Max. Min. Relative Humidity Wind Chill (°F) Heat Index (°F) altimeter (in) sea level (mb) 1 hr 3 hr 6 hr
6 hour
Temperature (ºF) Pressure Precipitation (in)